Tracking 19794 objects as of 22-Jul-2019
HD Live streaming from Space Station
objects crossing your sky now

TOPO 1

Track TOPO 1 now!
10-day predictions
TOPO 1 is classified as:


NORAD ID: 4363
Int'l Code: 1970-025B
Perigee: 1,090.0 km
Apogee: 1,094.0 km
Inclination: 100.0 °
Period: 106.9 minutes
Semi major axis: 7463 km
RCS: 0.1794 m2 (medium)
Launch date: April 8, 1970
Source: United States (US)
Launch site: AIR FORCE WESTERN TEST RANGE (AFWTR)
aabbcc
Your satellite tracking list
Your tracking list is empty




NASA's NSSDC Master Catalog

Two Line Element Set (TLE):
1  4363U 70025B   19202.70796104 -.00000023 +00000-0 +37336-4 0  9990
2  4363 099.9771 105.4295 0002644 061.1603 352.8979 13.46577312421682
Source of the keplerian elements: AFSPC